Terug naar catalogus

ELEKTRO-L 4

ActiefWeerGEO
NORAD 55506·PAYLOAD·🇷🇺 Russia

Gelanceerd Feb 5, 2023 vanaf Baikonur Cosmodrome

Loading…

TLE

VersSource: Space-Track

Epoch: Sep 14, 2026, 13:22 UTC

1 55506U 23016A   26257.55733959 -.00000066  00000-0  00000-0 0  9994
2 55506   0.0526  51.2592 0002208 140.2531 168.4880  1.00270234 13220

Volg ELEKTRO-L 4 in realtime met AllMySat

Download on the App Store